Погода в Балхаше

Погода в Балхаше : погода сейчас, прогноз погоды и архив. Всё, что Вы хотите узнать о погоде в Балхаше!

Хотите узнать прогноз погоды в Балхаше? Тогда Вам сюда: Погода в Балхаше

Поиск расширенной информации на нашем сайте:

Другие новости

Новости СМИ2

Главная страница сайта

Новости сайта

03.07.2017

Напоминаем, что на нашем специализированном сайте Метеоцентр.Азия вы можете получить высокодетализированные автоматические прогнозы погоды по пунктам России, СНГ и мира в авиационном формате (включающие направление и скорость ветра, видимость, явления погоды, количество и форму облачности, нижнюю и верхнюю границу облачности).


Погода в Балхаше - сегодня

Время (UTC), дата Ветер
(°,м/с) 
Видим.   Явления Облачность Т
(°С)
Тd
(°С)
f(%) Тe
(°С)
Pmin
(гПа)
dP
(гПа)
Po
(мм)
O2
(г/м3)
Тmin Tmax R s Состояние
почвы
15 13.01.18 360 (С) 10 км  {снег}  ясно 
-16.1 -18.2 84 -16  1030.3  1.3  738  317    -7.9  0.2     
18 13.01.18 тихо ()   10 км  {снег}  ясно 
-19.6 -22.6 77 -20  1032.8  1.7  739  322    -7.9  0.2     
21 13.01.18 360 (С) 10 км    ясно 
-22 -25.1 76 -22  1034.4  1.1  740  326           
00 14.01.18 тихо ()   10 км    ясно 
-24.9 -28.6 71 -25  1036.7  1.6  741  330           
03 14.01.18 тихо ()   20000 м    ясно 
-26.1 -30.1 69 -26  1038.2  1.2  742  332  -27.5      равномерный
сухой снег
100% 
06 14.01.18 060 (СВ) 20000 м    1/0 верхняя 
[Ci fib]
-19.1 -23 71 -23  1037.7  0.9  743  323  -27.5         
09 14.01.18 050 (СВ) 20000 м    8/0 верхняя 
[Cs]
-17.8 -23 64 -24  1036.4  -1  742  321           
12 14.01.18 050 (СВ) 10 км    10/0 средняя 
[As op]
-17.6 -22.3 67 -24  1036.2  -0.2  742  321           
15 14.01.18 050 (СВ) 10 км    10/0 средняя 
[Ac As]
-17.5 -21.8 69 -24  1035  -1.1  741  321    -17.2       
18 14.01.18 050 (СВ) 10 км    8/0 средняя 
[Ac As]
-17.1 -20.9 72 -23  1033.4  -1.5  740  320    -17.2       
21 14.01.18 050 (СВ) 10 км    10/10 1000 м 
[Sc]
-16.3 -20.2 72 -23  1032.3  -0.9  739  318           
00 15.01.18 040 (СВ) 10 км  слаб. ливневой снег  10/10 600 м кучево-дожд. 
[Cb cap]
-16.4 -20.3 72 -22  1032.1  -0.2  739  318           
03 15.01.18 030 (СВ) 20000 м  {ливн. осадки}  8/0 средняя, верхняя 
[As trans|Ci fib]
-19.2 -23.5 69 -25  1033.5  0.8  740  322        равномерный
сухой снег
100% 
06 15.01.18 020 (С) 20000 м  {ливн. осадки}  ясно 
-17.5 -22.7 64 -21  1034.4  1.2  741  320  -19.2    0.0     
09 15.01.18 200 (Ю) 20000 м    ясно 
-15.6 -21 63 -16  1034  741  318           
12 15.01.18 130 (ЮВ) 10 км    ясно 
-19 -23.3 69 -19  1035.8  1.1  741  323           
15 15.01.18 тихо ()   10 км    ясно 
-23.8 -27.6 71 -24  1036.8  741  329    -14.3       
18 15.01.18 тихо ()   10 км    ясно 
-27.2 -31.8 65 -27  1037.3  -0.1  741  334    -14.3       
21 15.01.18 тихо ()   10 км    ясно 
-26.4 -30.4 69 -26  1036.8  -0.4  741  332           
00 16.01.18 тихо ()   10 км    ясно 
-25.6 -29.6 69 -26  1036.7  0.1  741  331           
03 16.01.18 тихо ()   20000 м    3/0 средняя, верхняя 
[Ac trans|Ci sp]
-27.1 -31.4 67 -27  1037.4  0.4  741  334  -27.7      равномерный
сухой снег
100% 
06 16.01.18 080 (В) 20000 м    6/0 верхняя 
[Ci sp]
-20.4 -25.3 65 -23  1036.4  0.3  742  325  -27.7         
09 16.01.18 110 (В) 20000 м    3/0 верхняя 
[Ci fib]
-16.4 -22.9 57 -17  1034.8  -0.8  741  319           
12 16.01.18 050 (СВ) 10 км    1/0 верхняя 
[Ci fib]
-20 -24.2 69 -24  1036  0.5  741  324           
15 16.01.18 050 (СВ) 10 км    ясно 
-23 -26.5 73 -28  1036.8  0.2  742  328    -16.4       
Время (UTC), дата Ветер
(°,м/с) 
Видим.   Явления Облачность Т
(°С)
Тd
(°С)
f(%) Тe
(°С)
Pmin
(гПа)
dP
(гПа)
Po
(мм)
O2
(г/м3)
Тmin Tmax R s Состояние
почвы

Для получения пояснительной информации подведите курсор к названию столбца.

ПОГОДА в Балхаше - архив

Всё, что Вы хотите узнать о погоде в Балхаше - удобно и подробно!

Выберите нужную дату (начиная с 1 января 2015* года) и нажмите кнопку "Найти".
Будут отображены архивные сводки погоды по пункту Балхаш, начиная с указанной даты.


Отображать данные в формате CSV (для использования в таблицах Excel)


Внимание! Наш архив погоды предназначен исключительно для личного некоммерческого использования в познавательных целях. Если Вам необходимы официальные справки о состоянии погоды (для производственных, юридических, коммерческих и т.п. целей), обращайтесь в органы Росгидромета.

*Примечание: данная дата относится к архиву по метеостанциям СССР (Россия, СНГ, Балтия).
Архив по метеостанциям Зарубежной Европы и Азии (кроме Китая) хранится 10 дней, по другим регионам земного шара (Китай, Африка, Америка, Австралия, Океания) - 1 день.

Балхаш - район местоположения метеостанции


Название, широта, долгота, высота метеостанции:
Балхаш 46.8°ш. 75.1°д. 350 м над ур. моря [Казахстан]

Дополнительная информация

В oтличие oт бoльшинства пoгoдных сайтoв мы публикуем пoдрoбную метеoинфoрмацию в детальнoм прoфессиoнальнoм фoрмате.

Характеристики температуры и влажнoсти вoздуха измеряются на высoте 2 м в тени вдали oт зданий и деревьев.
Скoрoсть ветра измеряется на высoте 10 м (на урoвне рoста челoвека скoрoсть ветра ниже в 1.5-2 раза). Если метеoстанция нахoдится в гoрoде или в лесу, тo скoрoсть ветра занижена на 2-4 м/с пo сравнению с oткрытым местoм. Скoрoсть ветра над акватoриями крупных рек и oзёр, а также на вершинах хoлмoв на 2-5 м/с выше, чем в oбычных услoвиях.
Атмoсфернoе давление в разных тoчках местнoсти мoжет значительнo oтличаться oт давления на метеoстанции, в зависимoсти oт услoвий рельефа (при пoдъёме на 10 м давление пoнижается примернo на 1 мм рт.ст.).